Content
SEND FEEDBACK

Daily
Averages
Monthly
Summary
Spain

MONTAŅA DE IZAŅA, SPAIN


Home > Europe > Spain
Elevation: 7766 feet     Latitude: 28 18N     Longitude: 016 30W

WEATHER
 
SELECT A DAY
Number of Records: 210,127;   Date Range: 7/1/96 - 10/24/14
 
SHARE

PRINT THIS DATA

[ ← Previous Day ]
WEATHER ALMANAC - JANUARY 31, 2013
[ Next Day → ]
[ °C ]   °F
Weather ElementAverageHighLow
Temperature63.2 °F68 °F (3:00 pm)57.2 °F (7:00 am)
Dewpoint33.1 °F44.6 °F (12:00 pm)19.4 °F (9:00 pm)
Humidity33.3 %46 % (12:00 pm)20 % (9:30 pm)
Barometer30.36 in30.42 in (10:00 am)30.30 in (5:00 pm)
Wind Speed12.3 mph18.4 mph (1:30 pm)
Weather ElementAverage
Wind DirectionSE (135 °)

Weather ElementTotal
Precipitation---
Heating Degree Days2.4 (Base 65)
Growing Degree Days12.6 (Base 50)
Averaged from 32 records on January 31, 2013
WEATHER CONDITIONS BREAKOUT
WIND DIRECTION BREAKOUT
WEATHER BY HOUR - JANUARY 31, 2013
[ °C ]   °F
Local TimeTemperatureDewpointHumidityBarometerVisibilityWind DirectionWind SpeedGust SpeedPrecipitationEventsConditions
6:30 AM59.0 °F30.2 °F34 %30.36 inSSE (150°)11.5 mphClear
7:00 AM57.2 °F32.0 °F38 %30.36 inSSE (150°)12.7 mphClear
7:30 AM59.0 °F30.2 °F34 %30.36 inSSE (150°)13.8 mphClear
8:00 AM59.0 °F30.2 °F34 %30.39 inSSE (150°)10.4 mphClear
8:30 AM60.8 °F32.0 °F34 %30.39 inSE (140°)9.2 mphClear
9:00 AM62.6 °F32.0 °F32 %30.39 inSE (140°)11.5 mphClear
9:30 AM62.6 °F35.6 °F37 %30.39 inSE (140°)10.4 mphClear
10:00 AM62.6 °F39.2 °F42 %30.42 inSSE (150°)11.5 mphClear
10:30 AM64.4 °F39.2 °F40 %30.42 inESE (120°)11.5 mphClear
11:00 AM66.2 °F37.4 °F35 %30.42 inESE (120°)11.5 mphClear
11:30 AM66.2 °F39.2 °F37 %30.39 inESE (120°)12.7 mphClear
12:00 PM66.2 °F44.6 °F46 %30.39 inESE (120°)13.8 mphClear
12:30 PM66.2 °F44.6 °F46 %30.39 inSE (130°)13.8 mphClear
1:00 PM66.2 °F41.0 °F40 %30.39 inESE (120°)17.3 mphClear
1:30 PM66.2 °F42.8 °F43 %30.36 inESE (120°)18.4 mphClear
2:00 PM66.2 °F39.2 °F37 %30.36 inESE (120°)18.4 mphClear
2:30 PM66.2 °F42.8 °F43 %30.33 inESE (120°)15.0 mphClear
3:00 PM68.0 °F42.8 °F40 %30.33 inESE (120°)15.0 mphClear
3:30 PM68.0 °F39.2 °F35 %30.33 inSE (130°)12.7 mphClear
4:00 PM68.0 °F35.6 °F30 %30.33 inESE (120°)13.8 mphClear
4:30 PM66.2 °F32.0 °F28 %30.33 inSE (130°)10.4 mphClear
5:00 PM66.2 °F28.4 °F24 %30.30 inESE (120°)13.8 mphClear
5:30 PM64.4 °F28.4 °F26 %30.33 inSE (130°)13.8 mphClear
6:00 PM62.6 °F33.8 °F34 %30.30 inSE (130°)11.5 mphClear
6:30 PM62.6 °F26.6 °F26 %30.33 inSE (130°)11.5 mphClear
7:00 PM60.8 °F28.4 °F29 %30.33 inSSE (150°)9.2 mphClear
7:30 PM59.0 °F30.2 °F34 %30.33 inSSE (150°)9.2 mphClear
8:00 PM60.8 °F21.2 °F22 %30.36 inSE (140°)11.5 mphClear
8:30 PM59.0 °F21.2 °F23 %30.36 inSSE (150°)9.2 mphClear
9:00 PM59.0 °F19.4 °F22 %30.36 inSSE (160°)9.2 mphClear
9:30 PM60.8 °F19.4 °F20 %30.36 inSSE (150°)11.5 mphClear
10:00 PM60.8 °F21.2 °F22 %30.36 inSSE (150°)9.2 mphClear
Hourly data recorded from GCXO, located miles away from Montaņa de Izaņa, Spain







STORIES FROM OUR PARTNERS